Murcia Airport, Spain

9:48 AM CEST on March 28, 2017 (GMT +0200)
San Javier Air Base

Weather History for LELC - January, 2014

Change the Weather History Date:

Saturday, January 25, 2014

  Actual Average Record
Temperature  
Mean Temperature 64 °F -  
Max Temperature 70 °F 60 °F 70 °F (2014)
Min Temperature 58 °F 44 °F 35 °F (2007)
Degree Days  
Heating Degree Days 1    
Growing Degree Days 14 (Base 50)    
Moisture  
Dew Point 44 °F    
Average Humidity 43    
Maximum Humidity 52    
Minimum Humidity 27    
Precipitation  
Precipitation 0.00 in 0.03 in - ()
Sea Level Pressure  
Sea Level Pressure 30.13 in    
Wind  
Wind Speed 12 mph ()    
Max Wind Speed 22 mph    
Max Gust Speed 33 mph    
Averages and records for this station are not official NWS values.
T = Trace of Precipitation, MM = Missing Value Source: Averaged Metar Reports

Daily Weather History Graph

Daily Weather History Graph

Search for Another Location

Airport or City:

Trip Planner

Search our weather history database for the weather conditions in past years. The results will help you decide how hot, cold, wet, or windy it might be!

Date:

Astronomy

Jan. 25, 2014 Rise Set
Actual Time 8:12 AM CET 6:18 PM CET
Civil Twilight 7:44 AM CET 6:46 PM CET
Nautical Twilight 7:12 AM CET 7:18 PM CET
Astronomical Twilight 6:41 AM CET 7:49 PM CET
Moon 2:29 AM CET (1/25) 1:08 PM CET (1/25)
Length of Visible Light 11h 02m
Length of Day
10h 06m
Last Quarter, 37% of the Moon is Illuminated
Jan 25
Last Quarter
Jan 30
New
Feb 6
First Quarter
Feb 15
Full
Feb 22
Last Quarter

Hourly Weather History & Observations

Time (CET) Temp. Dew Point Humidity Pressure Visibility Wind Dir Wind Speed Gust Speed Precip Events Conditions
7:00 AM 64 °F 43 °F 35% 30.11 in 31 mi NW 12.7 mph - -   Scattered Clouds
7:00 AM 64.4 °F 44.6 °F 49% 30.09 in - NW 11.5 mph 23.0 mph N/A   Clear
8:00 AM 62.6 °F 44.6 °F 52% 30.09 in - NW 21.9 mph - N/A   Clear
9:00 AM 64.4 °F 44.6 °F 49% 30.12 in - NW 17.3 mph - N/A   Clear
10:00 AM 64 °F 43 °F 35% 30.17 in 47 mi NW 18.4 mph - -   Mostly Cloudy
10:00 AM 64.4 °F 44.6 °F 49% 30.15 in - NW 15.0 mph - N/A   Clear
11:00 AM 64.4 °F 44.6 °F 49% 30.18 in - NW 9.2 mph - N/A   Clear
12:00 PM 66.2 °F 44.6 °F 46% 30.18 in - WNW 9.2 mph - N/A   Clear
1:00 PM 69 °F 43 °F 28% 30.17 in 47 mi NW 16.1 mph - -   Mostly Cloudy
1:00 PM 68.0 °F 44.6 °F 43% 30.15 in - NW 16.1 mph - N/A   Clear
2:00 PM 68.0 °F 44.6 °F 43% 30.12 in - NW 21.9 mph 33.4 mph N/A   Clear
3:00 PM 68.0 °F 44.6 °F 43% 30.09 in - NW 20.7 mph 33.4 mph N/A   Clear
4:00 PM 69 °F 43 °F 27% 30.11 in 47 mi NW 18.4 mph - -   Scattered Clouds
4:00 PM 68.0 °F 42.8 °F 40% 30.09 in - NW 18.4 mph - N/A   Clear
5:00 PM 69.8 °F 42.8 °F 38% 30.09 in - NW 10.4 mph - N/A   Clear
6:00 PM 68.0 °F 44.6 °F 43% 30.12 in - NW 10.4 mph - N/A   Clear
7:00 PM 66 °F 44 °F 34% 30.14 in 47 mi WNW 6.9 mph - -   Scattered Clouds
7:00 PM 64.4 °F 44.6 °F 49% 30.12 in - WNW 6.9 mph - N/A   Clear
8:00 PM 64.4 °F 44.6 °F 49% 30.15 in - WNW 10.4 mph - N/A   Clear
9:00 PM 64.4 °F 44.6 °F 49% 30.15 in - NW 11.5 mph - N/A   Clear
10:00 PM 63 °F 45 °F 40% 30.19 in 47 mi West 4.6 mph - -   Scattered Clouds
10:00 PM 62.6 °F 44.6 °F 52% 30.18 in - WNW 4.6 mph - N/A   Clear